Погода в Силиври

Турция     41°04′19″N   28°15′11″E
темп.,
°C
ветер,
м/с
пор.,
м/с
влажн.,
%
обл.,
%
осадки,
мм/ч
давл.,
гПа
погр.,
м
8 марта, пн
пн800:00+5всв34590 0.0 1023508
03:00+4всв22610 0.0 1022400
06:00+4с11610 0.0 1020343
09:00+5св11618 0.0 1020327
12:00+6юз33560 0.0 1019628
15:00+7юз44590 0.0 1017550
18:00+7ю22560 0.0 1016246
21:00+7ююв11531 0.0 1017174
9 марта, вт
вт900:00+7юз22580 0.0 1018197
03:00+8зюз24700 0.0 1018337
06:00+7сз117321 0.0 101895
09:00+7с227314 0.0 101991
12:00+10всв35660 0.0 1019501
15:00+10ссв78640 0.0 1019564
18:00+9св810740 0.0 1018465
21:00+8св8117335 0.0 1019443
10 марта, ср
ср1000:00+8св9117668 0.0 1020515
03:00+8всв9128164 0.0 1019491
06:00+7всв8118898 0.0 1017521
09:00+8всв8118499 0.0 1017551
12:00+9всв6877100 0.0 1015609
15:00+10св467771 0.0 1014300
18:00+9св9108181 0.0 1013457
21:00+8св9128390 0.0 1014525
11 марта, чт
чт1100:00+8св81082100 0.0 1016704
03:00+8св7988100 2.3 1017668
06:00+6ссв91187100 0.7 1018636
09:00+6с8984100 0.7 1020547
12:00+6св101287100 0.7 1023866
15:00+8св10117094 0.8 10241185
18:00+7св9107331 0.1 10251055
21:00+5св8107418 0.1 1026802
12 марта, пт
пт1200:00+5св78740 0.0 1027624
03:00+5св56700 0.0 1027540
06:00+4всв45700 0.0 1026492
09:00+5в45650 0.0 1027582
12:00+6вюв44602 0.0 1026619
15:00+7юв22547 0.0 1024283
18:00+8ссв114684 0.0 1023132
21:00+7св336585 0.0 1022166